DELTA 1 DEB, 12580

Orbit data source: Space-Track

DELTA 1 DEB, 12580 is space debris in LEO originally from a launch on Thu, 29 Jul 1976 UTC launched from the Air Force Western Test Range (AFWTR). Debris objects in space refer to the collection of defunct objects orbiting the Earth. Examples of debris include non-operational satellites, rocket bodies, and fragments generated from explosions, collisions, or faulty payload assembly.

Loading next visibility...
Identifier
12580, 1976-077DY
Orbit
LEO
Country
Flag of USUS
Related business
Manufacturer
Unknown
Mission
Spacecraft
Bus & Motor
Unknown
Mass
Unknown
Launch date (UTC)
1976-07-29 (49 years ago)
Launch vehicle
Unknown
Launch site
Air Force Western Test Range (AFWTR)
Object type
Payload
Rocket body
Debris
Shape & HBR
Unknown shape, 1.1 m
Radar Cross Section
Small (<0.1 m²)

Expand to show TLE details & history
Last TLE update: 2 weeks ago

TLE from 2 weeks ago
0 DELTA 1 DEB
1 12580U 76077DY  25276.77094395  .00000084  00000-0  22381-2 0  9999
2 12580 102.4540  16.9591 0620862 202.3991 316.4186 11.28319278956051
Epoch: 2025-10-03T18:30Z
TLE epoch observation values (Epoch: 2025-10-03T18:30:09.557Z)
Latitude
25.73681°
Longitude
-87.21139°
Altitude
1,660.105 km
Speed
7.195 km/s
True Right ascension
13h 32m 09s
True Declination
25° 37' 03"
Sunlit
Object was in daylight at epoch
Visualization orbit readout
Latitude
Unknown
Longitude
Unknown
Altitude
Unknown
Speed
Unknown
Apparent Right ascension
Unknown
Apparent Declination
Unknown
Sunlit
N/A
Visualization observer readout
Local Sidereal Time
09:11:27
Azimuth
Unknown
Elevation
Unknown
Doppler factor
Unknown
Orbital elements
Apogee altitude
2,537.584 km
Perigee altitude
1,495.215 km
Semi-major axis
8,394.536 km
Eccentricity
0.06209
Inclination
102.454°
RAAN
16.9591°
Arg. of periapsis
202.3991°
True anomaly
311.22968°
Mean anomaly
316.4186°
Eccentric anomaly
313.85339°
Mean motion
2.82194 °/min
Orbital period
127.57 mins
BSTAR
0.0022381
Loading maneuver chart data...
Computing Atmospheric mass density...
Loading historical data...
Loading historical data...
Loading historical data...
Loading historical data...
Loading historical data...
Loading historical data...
Loading historical data...

Documentation

Showing up to 5 results
|